TimeEST,TemperatureF,Dew PointF,Humidity,Sea Level PressureIn,VisibilityMPH,Wind Direction,Wind SpeedMPH,Gust SpeedMPH,PrecipitationIn,Events,Conditions,WindDirDegrees,DateUTC
12:53 AM,33.1,30.0,89,30.00,6.0,WNW,8.1,16.1,N/A,,Overcast,290,2012-12-25 05:53:00
1:03 AM,33.8,28.4,81,29.98,6.0,WNW,8.1,-,N/A,,Overcast,290,2012-12-25 06:03:00
1:45 AM,33.8,30.2,87,29.99,5.0,WNW,8.1,-,N/A,,Overcast,290,2012-12-25 06:45:00
1:53 AM,33.1,28.9,85,30.01,5.0,West,4.6,-,N/A,,Overcast,280,2012-12-25 06:53:00
2:53 AM,33.1,28.9,85,30.04,5.0,WNW,3.5,-,N/A,,Overcast,290,2012-12-25 07:53:00
3:53 AM,33.1,30.0,89,30.06,5.0,West,3.5,-,N/A,,Overcast,280,2012-12-25 08:53:00
4:53 AM,33.1,30.0,89,30.08,5.0,West,3.5,-,N/A,,Overcast,280,2012-12-25 09:53:00
5:44 AM,33.8,30.2,87,30.08,5.0,NW,4.6,-,N/A,,Overcast,320,2012-12-25 10:44:00
5:53 AM,33.1,30.0,89,30.10,5.0,NNW,4.6,-,N/A,,Overcast,330,2012-12-25 10:53:00
6:53 AM,33.1,30.0,89,30.13,4.0,NNW,3.5,-,N/A,,Overcast,330,2012-12-25 11:53:00
7:32 AM,33.8,30.2,87,30.11,3.0,North,4.6,-,N/A,,Overcast,10,2012-12-25 12:32:00
7:46 AM,33.8,30.2,87,30.11,4.0,North,5.8,-,N/A,,Overcast,10,2012-12-25 12:46:00
7:53 AM,33.1,30.0,89,30.14,5.0,NNE,5.8,-,N/A,,Overcast,20,2012-12-25 12:53:00
8:05 AM,33.8,30.2,87,30.12,8.0,North,6.9,-,N/A,,Overcast,10,2012-12-25 13:05:00
8:53 AM,33.1,30.0,89,30.15,6.0,NNE,6.9,-,N/A,,Overcast,20,2012-12-25 13:53:00
9:53 AM,33.1,28.9,85,30.15,6.0,NE,11.5,-,N/A,,Overcast,50,2012-12-25 14:53:00
10:53 AM,34.0,28.9,82,30.20,8.0,NE,9.2,-,N/A,,Overcast,50,2012-12-25 15:53:00
11:02 AM,33.8,28.4,81,30.18,8.0,NE,10.4,-,N/A,,Overcast,40,2012-12-25 16:02:00
11:21 AM,33.8,28.4,81,30.18,8.0,NE,11.5,-,N/A,,Overcast,40,2012-12-25 16:21:00
11:53 AM,34.0,28.9,82,30.19,8.0,NE,11.5,-,N/A,,Overcast,50,2012-12-25 16:53:00
12:53 PM,34.0,28.0,79,30.17,8.0,NE,11.5,-,N/A,,Overcast,50,2012-12-25 17:53:00
1:53 PM,34.0,28.0,79,30.18,8.0,NE,11.5,-,N/A,,Overcast,50,2012-12-25 18:53:00
2:41 PM,33.8,28.4,81,30.16,10.0,NE,10.4,-,N/A,,Overcast,40,2012-12-25 19:41:00
2:53 PM,34.0,28.0,79,30.19,10.0,NNE,9.2,-,N/A,,Overcast,30,2012-12-25 19:53:00
3:32 PM,33.8,26.6,75,30.19,10.0,NNE,10.4,-,N/A,,Overcast,30,2012-12-25 20:32:00
3:53 PM,34.0,27.0,75,30.21,10.0,NE,8.1,-,N/A,,Overcast,50,2012-12-25 20:53:00
4:53 PM,33.1,27.0,78,30.19,9.0,NE,9.2,-,N/A,,Overcast,40,2012-12-25 21:53:00
5:53 PM,33.1,25.0,72,30.17,10.0,NE,13.8,-,N/A,,Overcast,50,2012-12-25 22:53:00
6:53 PM,33.1,25.0,72,30.19,10.0,NE,8.1,-,N/A,,Overcast,50,2012-12-25 23:53:00
7:53 PM,33.1,26.1,75,30.19,10.0,NE,10.4,-,N/A,,Overcast,50,2012-12-26 00:53:00
8:16 PM,33.8,24.8,70,30.16,10.0,NE,11.5,-,N/A,,Overcast,50,2012-12-26 01:16:00
8:53 PM,33.1,26.1,75,30.19,10.0,ENE,9.2,-,N/A,,Overcast,70,2012-12-26 01:53:00
9:53 PM,34.0,26.1,73,30.17,10.0,ENE,12.7,-,N/A,,Overcast,60,2012-12-26 02:53:00
10:53 PM,33.1,26.1,75,30.15,10.0,East,10.4,-,N/A,,Overcast,80,2012-12-26 03:53:00
11:53 PM,33.1,26.1,75,30.12,10.0,East,12.7,19.6,N/A,,Overcast,80,2012-12-26 04:53:00